Temperature
25 25 24 24 25 25 25 24 24 24 25 24 23 23 23 23 23 23 23 23 22 22 21 21 20 20 20 19 19 18 18 18 17 17 17 17 17 16 16 16 16 16 16 16
24 24 24 25 25 25 25 24 23 24 25 24 23 23 24 24 23 23 23 23 22 22 21 21 20 20 19 19 19 18 18 18 17 17 17 17 16 16 16 16 16 16 16 16
24 24 25 25 25 24 24 24 23 23 24 24 23 22 23 24 23 22 22 22 22 22 21 21 20 20 19 19 19 18 18 18 17 17 17 17 16 16 16 16 16 16 15 15
24 25 25 24 24 24 23 24 24 24 23 23 23 21 22 23 22 22 22 22 21 21 21 20 20 19 19 19 18 18 18 18 17 17 17 17 16 16 16 16 16 15 15 15
24 24 24 24 24 24 24 24 24 24 23 23 24 23 22 23 22 22 22 21 21 20 20 20 19 19 19 18 18 18 18 17 17 17 17 16 16 16 16 16 15 15 15 15
24 25 25 24 25 25 24 24 24 24 23 22 23 23 22 22 22 22 22 21 21 20 20 19 19 19 19 18 18 18 18 17 17 17 16 16 16 16 16 15 15 15 15 15
24 24 25 24 24 24 24 22 21 21 21 22 24 23 22 22 23 22 22 21 20 20 19 19 19 18 18 18 18 17 17 17 17 16 16 16 16 16 15 15 15 15 15 15
23 23 24 24 24 23 23 23 21 20 21 22 23 22 22 23 23 22 21 21 20 19 19 19 18 18 18 18 17 17 17 17 16 16 16 16 16 15 15 15 15 15 15 14
23 23 24 24 24 24 23 23 23 22 22 21 22 22 22 22 22 21 21 20 19 19 18 18 18 17 17 17 17 17 16 16 16 16 16 16 15 15 15 15 15 14 14 14
23 22 24 24 24 23 23 23 22 21 20 20 21 21 20 20 20 20 20 19 19 18 18 18 17 17 17 17 16 16 16 16 16 16 15 15 15 15 15 15 14 14 14 14
23 22 23 23 22 22 22 22 22 21 21 20 20 20 22 20 20 20 20 19 19 18 17 17 17 16 16 16 16 16 15 15 15 15 15 15 15 14 14 14 14 14 14 13
23 22 22 22 23 23 23 22 22 20 20 21 20 19 22 21 20 20 19 19 18 17 17 17 16 16 16 16 15 15 15 15 15 15 14 14 14 14 14 14 14 13 13 13
21 21 21 21 22 22 22 22 22 21 21 20 19 19 21 21 20 20 19 18 18 17 16 16 16 16 15 15 15 15 14 14 14 14 14 14 14 13 13 13 13 13 13 13
20 20 20 20 20 21 21 21 22 21 19 20 20 20 20 20 19 19 19 18 17 17 16 16 15 15 15 15 15 14 14 14 14 13 13 13 13 13 13 13 13 13 13 13
21 20 21 21 21 21 21 21 21 21 20 20 20 20 19 19 19 19 18 18 17 16 16 15 15 15 15 14 14 14 14 13 13 13 13 13 13 13 12 12 12 12 12 12
21 20 20 20 21 21 20 21 21 20 20 20 20 19 20 20 19 18 18 17 16 16 15 15 15 14 14 14 14 13 13 13 13 13 12 12 12 12 12 12 12 12 12 12
20 20 19 19 20 20 19 20 20 20 20 20 19 19 19 18 18 17 17 16 15 15 15 14 14 14 14 13 13 13 13 12 12 12 12 12 12 12 12 11 11 11 11 11
20 19 19 19 19 18 19 21 20 20 20 20 19 19 19 18 17 16 16 15 15 14 14 13 13 13 13 13 13 12 12 12 12 12 12 11 11 11 11 11 11 11 11 11
20 19 18 18 18 18 19 20 20 19 19 19 19 18 18 17 17 16 15 15 14 14 13 13 13 12 12 12 12 11 11 11 11 11 11 11 11 11 11 10 10 10 10 10
19 19 18 18 17 17 18 19 19 19 17 18 18 18 17 17 15 15 15 14 14 13 13 12 12 12 12 11 11 11 11 11 11 11 11 10 10 10 10 10 10 10 10 10
18 18 17 17 17 18 18 18 18 17 17 17 17 17 17 16 15 15 14 13 13 12 12 11 11 11 11 11 11 11 10 10 10 10 10 10 10 9 9 9 9 9 9 9
18 17 17 17 17 17 18 18 17 17 17 17 16 16 15 15 14 14 13 13 12 12 11 11 11 10 10 10 10 10 10 10 9 9 9 9 9 9 9 9 9 9 9 8
19 18 18 17 17 17 17 17 16 16 16 16 15 15 14 14 13 13 12 12 11 11 11 10 10 10 10 10 9 9 9 9 9 9 8 8 8 8 8 8 8 8 8 8
18 19 18 17 17 17 16 16 15 15 15 15 14 14 14 13 13 12 12 11 11 10 10 10 9 9 9 9 9 9 9 8 8 8 8 8 8 8 8 8 8 7 7 7
16 17 17 16 16 16 15 15 14 14 14 13 13 13 13 12 12 12 11 11 10 10 9 9 9 8 8 8 8 8 8 8 8 7 7 7 7 7 7 7 7 7 7 7
16 16 15 15 16 15 15 14 14 13 13 13 12 12 12 12 11 11 10 10 9 9 9 8 8 8 8 8 8 8 7 7 7 7 7 7 7 7 6 6 6 6 6 6
Wind_Speed
5 4 2 2 3 4 2 2 3 1 2 3 2 3 3 3 3 3 4 5 5 6 6 6 6 5 4 4 5 6 4 3 4 2 2 2 2 2 2 2 3 3 3 3
4 3 2 3 3 4 4 3 2 1 2 2 3 4 4 5 4 2 2 3 5 6 7 6 6 5 4 4 4 4 4 4 4 3 2 2 2 1 2 2 3 3 3 3
3 1 1 3 4 4 4 2 3 3 4 5 5 5 5 5 5 4 1 1 2 4 5 6 6 5 5 4 4 4 4 4 4 4 2 2 2 1 2 1 2 2 3 3
3 3 3 4 4 5 4 3 4 5 6 4 5 3 3 6 6 5 3 2 3 4 4 4 5 5 5 3 3 4 4 4 3 3 3 2 2 1 1 1 1 1 2 2
3 3 4 4 3 4 4 5 7 8 9 9 8 5 4 7 6 5 4 3 3 4 4 4 4 5 5 4 3 3 3 3 3 3 3 2 1 0 1 1 1 1 1 1
4 3 3 3 3 3 4 7 9 10 8 8 8 5 2 4 6 6 5 4 4 3 4 4 4 4 4 4 3 3 2 2 3 2 2 2 1 1 1 1 1 1 1 0
6 6 4 2 4 4 6 5 3 3 5 4 3 2 2 6 6 5 5 4 4 3 4 4 4 4 4 4 4 3 3 2 2 2 1 1 1 1 1 1 0 0 0 0
6 6 6 4 4 4 6 6 4 4 4 4 3 2 4 7 7 5 5 5 4 4 3 3 3 3 3 4 3 4 3 2 1 1 1 1 1 1 1 1 1 1 1 1
4 2 4 4 4 5 5 5 6 7 8 6 3 1 4 6 6 5 5 4 4 3 3 3 3 3 3 3 2 2 3 3 2 1 1 0 0 1 1 1 1 1 1 0
7 5 3 4 3 5 6 6 4 4 4 5 4 2 1 3 2 3 3 3 3 3 3 3 3 2 2 2 2 3 3 2 2 0 1 1 1 1 0 1 0 0 0 1
8 6 4 4 5 5 6 7 5 4 4 4 4 1 2 4 3 2 2 3 4 4 3 3 3 3 2 2 2 1 1 2 1 1 1 1 1 1 1 1 1 1 1 1
4 5 7 6 4 3 4 6 6 5 5 5 5 1 3 4 4 3 3 3 4 4 3 2 3 2 1 1 2 2 2 0 1 1 1 1 2 1 1 1 1 1 1 1
5 5 6 4 4 4 5 6 6 6 6 5 6 2 2 4 3 3 3 3 4 3 3 2 2 1 1 2 2 2 1 1 1 0 1 1 2 2 1 2 2 2 2 1
4 6 8 7 5 4 6 7 7 6 6 7 7 4 3 0 1 2 3 3 3 3 3 2 1 1 1 2 2 1 1 1 2 1 1 2 2 2 1 2 2 2 2 2
4 7 10 9 7 8 8 9 9 9 9 9 8 5 3 1 0 1 2 3 2 2 2 2 1 1 1 1 1 1 1 1 1 1 2 2 3 2 1 2 2 2 2 2
5 7 10 11 9 9 10 10 10 10 10 10 9 6 2 2 2 2 2 2 2 1 1 1 1 1 1 1 1 1 1 1 1 1 2 2 3 2 1 1 1 2 2 2
6 8 10 10 9 9 10 9 9 8 7 7 7 4 1 1 2 2 3 3 2 3 3 2 2 2 2 2 2 2 2 2 2 2 2 3 2 2 2 2 2 2 2 2
8 9 6 8 8 9 2 2 2 4 5 4 4 2 2 2 2 2 2 2 2 2 3 3 4 4 3 3 3 3 3 3 2 3 3 3 2 2 2 2 2 2 2 2
8 7 6 6 8 8 4 3 3 4 4 3 3 2 2 3 1 1 2 3 3 3 3 3 3 3 3 3 3 3 3 3 3 3 3 3 3 3 3 3 3 3 2 3
6 7 6 7 7 6 1 3 4 2 3 3 2 2 2 1 1 1 3 4 4 3 3 3 4 3 3 3 3 2 3 3 3 3 3 4 3 3 3 3 4 3 3 3
5 6 8 9 8 5 2 2 1 2 1 4 4 3 2 2 2 3 4 4 4 4 4 3 3 3 3 3 3 3 3 3 3 3 3 4 3 3 3 3 3 3 3 3
6 5 7 7 8 4 3 1 1 2 4 4 4 4 4 4 4 4 3 3 3 3 3 3 3 3 3 3 3 3 3 4 4 3 3 4 4 4 4 3 3 3 3 4
4 3 3 2 1 2 3 2 4 3 3 4 4 4 3 2 2 2 2 2 2 2 2 2 3 3 3 3 3 4 3 4 4 4 3 4 4 3 3 3 3 3 3 3
4 4 4 4 2 1 1 3 3 3 3 4 4 3 2 1 1 2 1 2 2 2 2 3 3 3 4 4 4 4 4 4 4 4 4 3 3 3 3 3 2 2 3 3
5 5 6 7 4 3 1 2 2 2 3 3 3 3 3 2 2 2 2 1 2 3 2 2 3 3 4 4 4 4 5 5 5 5 4 3 3 3 3 3 3 4 3 4
7 7 7 6 5 5 4 2 2 2 3 2 2 3 2 2 2 2 2 2 2 3 2 2 3 3 4 4 4 4 5 5 6 5 4 3 3 3 2 3 4 5 5 5
Wind_Direction
221 224 220 236 264 294 288 261 245 263 248 239 233 236 214 198 216 227 191 168 162 151 147 136 128 122 118 116 118 125 130 119 109 95 82 91 74 77 86 79 75 55 48 53
218 213 255 284 287 279 270 270 280 262 268 272 248 240 222 189 187 197 210 173 159 159 145 133 127 123 113 111 116 118 116 108 105 101 94 108 112 85 92 66 54 50 50 46
232 214 215 250 265 272 264 276 282 286 274 248 245 238 205 170 156 160 188 131 115 129 135 137 134 127 122 116 113 115 108 108 114 115 102 83 75 63 67 73 69 43 48 40
225 238 254 254 256 279 278 305 294 283 276 261 237 253 189 168 161 155 158 150 114 110 110 123 139 135 130 123 121 113 109 103 109 119 115 110 106 93 103 105 99 61 56 43
232 218 240 255 277 290 296 301 281 270 271 271 253 252 194 161 156 150 143 120 113 121 120 125 125 132 133 125 114 112 114 111 109 121 128 135 128 106 79 83 88 92 66 58
235 230 238 263 283 287 284 279 265 252 254 258 252 247 192 164 153 153 145 132 124 117 124 122 121 125 124 122 124 127 124 114 115 119 130 146 148 109 88 70 94 97 106 95
223 210 204 223 262 246 255 278 275 249 231 241 251 234 142 115 116 122 126 126 121 115 122 122 122 123 123 126 141 141 126 109 105 110 114 145 173 165 161 156 144 166 146 345
240 216 193 205 242 266 264 264 279 291 292 298 274 221 105 103 106 110 116 114 106 107 107 121 122 123 126 127 142 145 140 135 124 144 201 201 168 152 183 167 160 190 207 212
291 237 175 190 232 262 260 266 283 286 286 282 241 163 110 91 101 104 104 103 108 100 92 98 111 117 122 126 136 151 153 150 150 227 257 173 280 184 171 188 183 203 205 229
292 289 225 179 228 231 265 284 279 271 287 283 267 217 148 116 108 117 126 119 106 96 91 93 97 98 99 123 154 170 170 153 139 192 291 308 260 276 210 142 196 290 258 259
286 273 247 199 219 234 234 249 255 265 266 277 291 324 73 134 140 140 127 119 121 116 101 83 81 86 82 80 95 119 146 151 165 216 265 303 296 251 244 195 205 240 256 269
291 285 265 238 204 220 253 264 263 269 277 278 286 282 76 104 122 131 130 117 104 97 91 88 83 75 93 106 97 80 58 71 185 243 287 284 291 250 249 254 248 226 234 247
326 284 276 238 198 197 238 251 265 276 280 272 273 262 94 107 122 123 121 117 109 101 91 79 87 82 95 102 95 95 72 29 20 276 276 292 299 281 260 251 255 247 226 233
315 276 277 282 310 300 263 258 257 263 267 272 272 269 267 174 102 105 107 108 107 109 98 76 54 71 85 88 93 95 75 42 7 344 301 266 274 273 272 261 254 260 240 229
271 273 283 286 289 293 289 281 266 255 261 272 285 288 281 296 74 85 98 100 101 87 84 71 53 59 75 61 68 78 66 43 342 337 328 321 307 284 262 266 268 266 262 270
255 275 283 279 276 279 279 275 267 261 264 270 280 286 302 344 25 50 60 63 59 62 43 40 42 60 79 58 20 30 17 354 340 324 315 329 329 322 305 286 278 279 267 266
252 266 280 280 282 281 267 267 260 254 255 271 281 293 46 14 25 35 33 42 28 19 16 4 1 21 25 22 24 13 355 356 344 327 327 332 328 327 327 314 300 276 274 278
270 270 272 278 280 263 270 343 312 274 275 292 304 337 35 69 55 63 60 47 15 9 6 7 3 9 12 20 13 360 359 347 334 339 337 338 337 326 327 316 289 276 278 275
251 260 268 269 271 268 261 292 305 285 274 314 309 329 29 57 55 71 36 38 37 26 12 9 6 359 356 2 2 358 346 343 350 341 332 333 332 325 320 308 297 281 274 279
236 242 251 262 266 273 308 51 41 330 280 35 17 14 53 12 293 32 52 37 25 31 23 15 1 351 351 352 357 351 332 337 338 329 328 325 323 315 305 298 292 295 285 270
218 231 240 256 262 265 53 74 70 266 357 43 34 26 22 356 7 49 49 44 30 25 17 8 1 351 351 351 340 327 333 335 331 331 329 321 316 305 299 299 300 298 293 281
237 240 238 244 251 254 89 120 353 27 31 24 25 23 29 25 37 44 38 34 24 14 10 1 356 350 346 339 333 327 338 329 326 323 319 313 306 304 309 301 297 293 289 283
247 271 283 277 286 51 77 55 41 22 6 15 16 23 44 21 16 18 15 10 356 354 357 357 355 343 335 338 339 332 332 328 319 315 309 301 302 303 302 294 292 295 296 287
284 306 284 273 249 301 53 36 19 3 7 13 12 8 8 335 328 333 338 351 355 356 356 353 343 338 339 342 344 336 327 318 312 305 300 298 301 305 305 299 286 283 282 282
298 302 285 278 288 307 296 346 347 353 353 354 347 330 322 323 310 312 313 339 351 340 336 341 331 328 327 332 333 333 327 318 310 306 305 304 300 291 294 302 293 281 272 268
268 269 271 278 290 291 287 292 297 298 300 310 310 305 312 309 302 310 318 338 341 328 330 327 324 327 326 325 326 332 326 320 317 315 312 306 302 295 285 283 302 301 280 289
Height
1502 1503 1506 1504 1502 1502 1503 1507 1510 1508 1504 1506 1509 1510 1509 1510 1511 1512 1513 1515 1517 1519 1522 1523 1525 1526 1528 1529 1529 1530 1531 1531 1532 1532 1533 1533 1533 1534 1534 1533 1533 1534 1534 1534
1503 1505 1502 1501 1500 1501 1503 1508 1510 1507 1503 1506 1509 1509 1507 1507 1509 1511 1512 1513 1515 1518 1520 1522 1523 1525 1526 1528 1529 1530 1530 1531 1531 1532 1532 1533 1533 1534 1534 1534 1534 1534 1534 1534
1504 1504 1501 1501 1502 1504 1505 1508 1510 1509 1505 1503 1508 1511 1506 1505 1508 1510 1512 1513 1514 1516 1518 1520 1522 1524 1525 1527 1528 1529 1530 1530 1531 1531 1532 1532 1533 1533 1533 1533 1533 1533 1533 1533
1502 1501 1501 1503 1504 1504 1509 1504 1505 1507 1510 1511 1508 1520 1509 1505 1507 1509 1511 1512 1514 1516 1517 1519 1521 1523 1524 1526 1527 1528 1529 1529 1530 1530 1531 1531 1531 1532 1532 1532 1532 1532 1532 1532
1502 1501 1503 1505 1504 1503 1505 1503 1504 1505 1508 1510 1505 1512 1510 1503 1508 1509 1510 1512 1513 1515 1516 1518 1520 1521 1523 1524 1526 1527 1528 1528 1529 1529 1530 1530 1531 1531 1531 1531 1531 1531 1531 1531
1499 1499 1500 1502 1502 1502 1503 1503 1502 1502 1507 1517 1505 1508 1513 1503 1504 1506 1508 1511 1513 1514 1516 1517 1519 1520 1521 1522 1524 1525 1526 1527 1527 1528 1528 1529 1529 1530 1530 1530 1530 1530 1530 1530
1501 1499 1499 1501 1504 1503 1503 1511 1520 1520 1520 1515 1498 1504 1509 1499 1499 1503 1507 1509 1511 1513 1515 1516 1517 1518 1520 1521 1522 1523 1524 1525 1525 1526 1526 1527 1527 1528 1528 1528 1528 1528 1528 1528
1506 1507 1499 1500 1503 1506 1505 1509 1524 1532 1525 1513 1501 1505 1504 1498 1500 1504 1506 1509 1511 1512 1514 1515 1516 1517 1518 1519 1520 1521 1522 1523 1524 1524 1525 1526 1526 1526 1526 1526 1526 1526 1526 1526
1504 1505 1497 1498 1499 1502 1506 1507 1505 1514 1513 1516 1508 1503 1502 1499 1502 1504 1506 1509 1511 1512 1513 1514 1515 1516 1517 1517 1518 1519 1520 1520 1521 1522 1523 1523 1524 1524 1524 1524 1525 1524 1525 1525
1501 1507 1498 1498 1500 1501 1503 1504 1508 1516 1524 1525 1511 1508 1512 1507 1506 1506 1507 1509 1510 1512 1513 1513 1514 1515 1515 1516 1517 1517 1517 1518 1519 1520 1520 1521 1521 1521 1522 1522 1522 1522 1522 1522
1501 1506 1503 1500 1503 1504 1504 1506 1506 1510 1512 1524 1525 1518 1500 1502 1503 1505 1507 1508 1510 1511 1512 1513 1514 1514 1514 1514 1515 1515 1516 1516 1517 1517 1518 1518 1518 1519 1519 1519 1519 1519 1520 1520
1502 1504 1506 1500 1496 1496 1500 1502 1505 1517 1516 1512 1519 1519 1498 1500 1502 1504 1506 1508 1509 1510 1511 1512 1512 1513 1513 1513 1513 1513 1514 1514 1514 1515 1515 1515 1515 1516 1516 1516 1516 1516 1517 1517
1506 1508 1513 1509 1506 1501 1502 1501 1501 1504 1509 1513 1519 1517 1500 1500 1502 1504 1505 1507 1508 1510 1511 1511 1511 1512 1512 1512 1512 1512 1512 1512 1512 1512 1512 1512 1512 1512 1512 1513 1513 1513 1513 1514
1509 1509 1512 1517 1510 1504 1504 1502 1501 1505 1513 1512 1509 1508 1503 1502 1502 1503 1505 1507 1508 1509 1510 1510 1510 1511 1511 1511 1511 1510 1510 1510 1510 1509 1509 1509 1509 1509 1509 1510 1510 1510 1510 1510
1508 1510 1506 1502 1500 1500 1501 1501 1500 1503 1504 1508 1504 1504 1502 1502 1503 1504 1505 1506 1507 1508 1508 1509 1509 1509 1509 1509 1509 1509 1509 1508 1508 1507 1506 1506 1506 1506 1506 1506 1506 1506 1507 1507
1506 1508 1506 1504 1499 1499 1500 1498 1498 1499 1499 1499 1500 1502 1498 1500 1501 1503 1504 1505 1506 1507 1507 1508 1508 1508 1508 1508 1508 1507 1507 1506 1505 1505 1504 1503 1503 1502 1502 1503 1503 1503 1503 1503
1505 1507 1509 1507 1499 1499 1503 1496 1495 1496 1496 1498 1501 1501 1498 1501 1502 1503 1504 1505 1506 1506 1506 1506 1506 1506 1506 1506 1506 1505 1505 1504 1503 1502 1502 1501 1500 1499 1499 1499 1499 1499 1499 1499
1504 1505 1507 1507 1505 1514 1500 1490 1491 1493 1494 1495 1496 1497 1498 1501 1502 1504 1504 1504 1505 1505 1505 1505 1505 1505 1504 1504 1504 1503 1502 1502 1501 1500 1499 1498 1497 1496 1495 1495 1495 1495 1495 1495
1501 1504 1508 1509 1509 1503 1496 1492 1491 1494 1495 1494 1496 1497 1498 1500 1502 1504 1504 1504 1504 1504 1504 1504 1504 1503 1503 1503 1502 1501 1500 1499 1498 1497 1496 1495 1494 1493 1492 1492 1492 1492 1492 1491
1499 1501 1507 1507 1511 1511 1499 1492 1492 1495 1499 1495 1496 1497 1498 1500 1503 1504 1504 1503 1504 1504 1504 1503 1503 1502 1502 1501 1500 1499 1498 1497 1496 1494 1493 1492 1490 1490 1489 1489 1488 1488 1488 1487
1502 1503 1506 1507 1507 1500 1495 1494 1494 1504 1503 1497 1497 1498 1499 1500 1502 1503 1503 1503 1503 1502 1502 1501 1501 1500 1500 1499 1498 1496 1496 1495 1493 1492 1491 1489 1488 1487 1486 1486 1485 1485 1484 1484
1498 1501 1501 1502 1505 1504 1495 1495 1498 1500 1497 1497 1498 1499 1500 1500 1501 1501 1501 1501 1501 1501 1501 1500 1499 1498 1498 1497 1496 1494 1493 1492 1491 1490 1488 1487 1485 1484 1483 1483 1482 1481 1480 1479
1492 1494 1494 1496 1499 1496 1495 1496 1497 1498 1498 1498 1499 1499 1500 1500 1500 1501 1501 1500 1500 1499 1499 1498 1497 1496 1495 1495 1494 1493 1491 1490 1488 1487 1485 1484 1482 1481 1480 1479 1478 1477 1476 1475
1490 1490 1491 1493 1493 1494 1495 1496 1497 1497 1498 1498 1499 1499 1499 1499 1500 1500 1500 1499 1499 1498 1497 1496 1495 1494 1493 1492 1491 1490 1489 1487 1486 1484 1482 1481 1479 1478 1477 1476 1475 1473 1472 1471
1493 1492 1492 1492 1492 1493 1494 1495 1496 1496 1497 1497 1497 1498 1498 1498 1498 1498 1498 1497 1497 1496 1496 1495 1493 1492 1491 1490 1489 1488 1486 1484 1482 1481 1479 1477 1476 1474 1473 1471 1471 1469 1468 1468
1493 1493 1494 1493 1492 1492 1492 1493 1493 1494 1495 1495 1495 1495 1496 1496 1496 1496 1496 1495 1495 1494 1493 1492 1491 1490 1489 1487 1486 1485 1483 1481 1479 1477 1476 1474 1472 1470 1469 1467 1466 1465 1464 1463